KINEIS-4B

Last updated on Wed Oct 22 2025 00:02:42 GMT+0000 (Coordinated Universal Time)

1 63304U 25056E 25294.60331653 .00003977 00000+0 63773-3 0 9997 2 63304 97.9977 58.2237 0001827 331.7582 28.3526 14.72245620 32015
UTC large
Height (km)
Speed (km/s)
/
Latitude / Longitude
Inclination (degrees)
Orbital Period (minutes)
Azimuth
Elevation
Range (km)
Doppler Factor

Next 0 passes for location: London (51.5072 / 0.1276)

Sorry there are no passes over London.